User: anonymous   Login
Location: Unspecified
(0.0000°N, 0.0000°E)
Time: 20:12:21
(UTC+00:00)
Language:

AAUSAT CUBESAT 2 - Orbit

View from above orbital plane
View from above orbital plane
View from above satellite
View from above satellite

Ground track
Ground track

The orbit data is extracted from the following two-line orbital elements,

1 32788U 08021F   18351.01191287  .00000730  00000-0  72466-4 0  9995
2 32788  97.5086   9.7807 0013411  95.8102 264.4648 14.94545046577488
Epoch (UTC): 17 December 2018 00:17:09
Eccentricity: 0.0013411
inclination: 97.5086°
perigee height: 574 km
apogee height: 593 km
right ascension of ascending node: 9.7807°
argument of perigee: 95.8102°
revolutions per day: 14.94545046
mean anomaly at epoch: 264.4648°
orbit number at epoch: 57748

The dashed part of the orbit path shows where the satellite is in the earth's shadow,  

DLR